This demonstration page uses our WeatherBlox Daily Observations layout. Learn more.

Left ArrowRight Arrow

53.62937, 11.41316

Hourly Observations for December 6, 2018

Temp ( °F °C ) Dew Point ( °F °C ) Humidity (%) Winds ( mph kmh ) Pressure ( in mb ) Visibility ( mi km ) Precip ( " mm )
6:50 am 06:50 Mostly Cloudy 37 3 36 2 93 93 SSE 9 15 29.91 1013 30 48 N/A
7:20 am 07:20 Mostly Cloudy 39 4 36 2 87 87 VRB 6 9 29.91 1013 30 48 N/A
7:50 am 07:50 Mostly Cloudy 39 4 36 2 87 87 S 5 7 29.91 1013 30 48 N/A
8:20 am 08:20 Cloudy 39 4 36 2 87 87 S 5 7 29.91 1013 6 9 N/A
8:50 am 08:50 Cloudy 39 4 37 3 93 93 S 6 9 29.91 1013 5 8 N/A
9:20 am 09:20 Cloudy with Mist and Fog 39 4 37 3 93 93 S 7 11 29.91 1013 2 4 N/A
9:50 am 09:50 Mostly Cloudy 39 4 39 4 100 100 S 7 11 29.91 1013 5 8 N/A
10:20 am 10:20 Cloudy 41 5 39 4 93 93 S 8 13 29.91 1013 5 8 N/A
10:50 am 10:50 Cloudy 41 5 39 4 93 93 S 7 11 29.91 1013 4 7 N/A
11:20 am 11:20 Cloudy 41 5 39 4 93 93 SSE 7 11 29.91 1013 4 6 N/A
11:50 am 11:50 Cloudy 41 5 41 5 100 100 VRB 2 4 29.91 1013 4 6 N/A
12:20 pm 12:20 Cloudy with Mist and Fog 43 6 41 5 93 93 SE 8 13 29.88 1012 3 5 N/A
12:50 pm 12:50 Cloudy 43 6 41 5 93 93 SSE 5 7 29.88 1012 1 2 N/A
1:20 pm 13:20 Cloudy with Mist and Fog 43 6 41 5 93 93 S 5 7 29.88 1012 1 1 N/A
1:50 pm 13:50 Mostly Cloudy with Mist and Fog 43 6 43 6 100 100 S 3 6 29.88 1012 1 1 N/A
2:20 pm 14:20 Cloudy with Fog 45 7 43 6 93 93 VRB 3 6 29.88 1012 1 1 N/A
2:50 pm 14:50 Cloudy with Fog 45 7 43 6 93 93 SSW 6 9 29.88 1012 1 1 N/A
3:20 pm 15:20 Cloudy with Mist and Fog 45 7 45 7 100 100 VRB 3 6 29.88 1012 1 1 N/A
3:50 pm 15:50 Cloudy with Mist and Fog 45 7 45 7 100 100 S 5 7 29.85 1011 1 1 N/A
4:20 pm 16:20 Cloudy with Fog 46 8 45 7 93 93 VRB 3 6 29.88 1012 1 1 N/A
4:50 pm 16:50 Cloudy with Fog 46 8 46 8 100 100 SSW 5 7 29.88 1012 1 1 N/A
5:20 pm 17:20 Cloudy with Fog 48 9 46 8 94 94 SSW 5 7 29.85 1011 1 1 N/A
5:50 pm 17:50 Cloudy with Fog 48 9 48 9 100 100 SSW 5 7 29.85 1011 1 1 N/A
6:20 pm 18:20 Cloudy with Fog 50 10 50 10 100 100 VRB 5 7 29.85 1011 1 1 N/A
6:50 pm 18:50 Cloudy with Mist and Fog 50 10 50 10 100 100 SSW 5 7 29.85 1011 2 3 N/A

Powered by AerisWeather